Temperature
2 3 3 2 2 3 2 2 3 4 5 5 5 5 5 5 4 4 4 3 3 3 4 4 5 6 6 7 8 9 9 10 10 11 11 11 11 11 11 11 11 11 11 11
2 3 3 2 3 3 3 3 3 3 4 5 5 5 5 4 4 3 3 3 3 3 3 4 4 5 6 6 7 8 9 9 10 10 11 11 11 11 11 11 11 11 11 11
2 3 2 2 4 3 3 4 3 3 4 5 5 4 4 4 3 3 3 3 3 3 3 3 4 5 5 6 7 7 8 9 9 10 10 11 11 11 11 10 10 11 11 10
1 1 1 4 4 3 3 3 4 4 4 4 4 4 3 3 3 3 3 3 3 3 3 3 4 4 5 6 6 7 8 8 9 9 10 10 10 10 10 10 10 10 11 10
1 1 2 4 4 3 2 3 4 4 4 4 3 3 4 3 2 2 2 2 2 3 3 3 4 4 5 5 6 6 7 8 8 9 9 10 10 10 10 10 10 10 10 10
0 0 1 4 4 3 2 2 4 3 3 3 3 3 4 3 2 2 2 2 2 2 3 3 4 4 5 5 5 6 7 7 8 9 9 9 10 10 10 10 10 10 10 10
0 0 2 4 3 2 2 3 3 2 2 2 2 2 2 2 2 2 2 2 2 2 3 3 3 4 4 5 5 6 6 7 8 8 8 9 9 9 9 9 9 9 9 9
0 0 2 3 2 2 3 3 2 2 2 2 1 1 1 1 1 1 1 1 2 2 2 3 3 3 4 4 5 5 6 7 7 8 8 9 9 9 9 9 9 9 9 9
1 2 4 2 2 2 2 2 1 1 1 1 1 1 1 1 1 1 1 1 1 2 2 2 3 3 3 4 5 5 6 6 7 7 8 8 8 9 9 9 9 8 8 9
0 2 3 2 2 1 1 1 1 0 0 0 0 0 0 0 0 1 1 1 1 1 2 2 3 3 3 4 4 5 5 6 6 7 7 8 8 8 8 8 8 8 8 8
1 2 2 1 1 1 0 0 -0 -0 -0 -1 -0 -0 -0 -0 0 0 0 0 1 1 1 2 2 3 3 3 4 4 5 6 6 7 7 7 8 8 8 8 9 9 9 8
1 2 2 2 1 0 -0 -1 -1 -1 -1 -1 -1 -1 -1 -0 -0 -0 -0 0 0 1 1 1 2 3 3 3 4 4 5 5 6 6 6 7 7 7 7 8 8 8 8 8
1 1 0 0 -0 -1 -1 -1 -1 -2 -1 -1 -1 -1 -1 -1 -1 -1 -0 -0 0 1 1 1 2 2 3 3 4 4 5 5 6 6 6 6 7 7 7 7 7 7 8 8
-1 -1 -1 -1 -1 -1 -2 -2 -2 -2 -2 -2 -1 -1 -1 -1 -1 -1 -1 -1 -0 0 1 1 1 2 2 3 3 4 5 5 5 6 6 6 6 7 7 6 6 6 6 7
-2 -2 -2 -2 -2 -2 -2 -2 -2 -2 -2 -2 -2 -2 -2 -2 -2 -1 -1 -1 -1 0 0 1 1 1 2 2 3 4 5 5 5 5 5 6 6 6 6 6 6 6 6 6
-2 -2 -3 -3 -3 -3 -3 -3 -3 -3 -3 -3 -2 -2 -2 -2 -2 -2 -2 -1 -1 -0 0 0 1 1 2 2 3 4 4 5 5 5 5 5 5 5 5 6 6 6 6 6
-3 -3 -3 -3 -3 -3 -3 -3 -4 -4 -3 -3 -3 -3 -3 -2 -2 -2 -2 -1 -1 -0 -0 0 1 1 2 2 3 3 4 4 4 5 5 5 5 5 5 5 5 5 6 6
-4 -4 -4 -4 -4 -4 -4 -4 -4 -4 -4 -4 -3 -3 -3 -3 -3 -2 -2 -1 -1 -0 0 0 1 1 2 2 3 3 4 4 4 4 4 4 4 4 5 5 5 5 5 5
-4 -4 -4 -4 -4 -4 -4 -4 -4 -4 -4 -4 -4 -4 -3 -3 -3 -3 -2 -2 -1 -1 0 0 1 1 2 2 3 3 3 3 4 4 4 4 4 4 4 4 5 5 5 5
-4 -4 -5 -5 -5 -5 -5 -5 -5 -5 -5 -5 -4 -4 -4 -3 -3 -3 -3 -2 -1 -1 -1 -0 1 1 2 2 2 3 3 3 3 3 3 3 3 3 4 4 4 4 4 4
-5 -5 -5 -5 -5 -5 -5 -5 -5 -5 -5 -5 -5 -5 -4 -4 -3 -3 -3 -2 -1 -1 -1 -0 0 1 1 2 2 3 3 3 3 3 3 3 3 3 4 4 4 4 4 4
-5 -5 -5 -5 -6 -5 -5 -5 -5 -6 -5 -5 -5 -5 -5 -4 -4 -3 -3 -3 -2 -1 -1 -0 0 1 1 2 2 2 3 3 3 3 3 3 3 3 3 3 4 4 3 3
-6 -6 -6 -6 -6 -6 -6 -6 -6 -6 -6 -6 -6 -5 -5 -5 -5 -4 -4 -3 -2 -2 -1 -1 -0 0 1 1 2 2 2 2 3 3 3 3 3 3 3 3 3 3 3 3
-6 -6 -7 -7 -7 -7 -6 -6 -6 -6 -6 -6 -6 -6 -6 -5 -5 -4 -4 -3 -2 -2 -1 -1 -0 0 1 1 1 2 2 2 2 2 2 2 3 3 3 3 3 2 2 2
-7 -7 -7 -7 -7 -7 -7 -7 -7 -7 -6 -6 -6 -6 -6 -6 -5 -5 -4 -3 -3 -2 -2 -1 -0 -0 0 1 1 1 2 2 2 2 2 2 2 2 2 2 2 2 2 2
-7 -8 -8 -8 -8 -8 -8 -8 -8 -7 -7 -7 -6 -6 -6 -6 -5 -5 -4 -3 -3 -2 -2 -1 -1 -0 -0 0 1 1 1 2 2 2 2 2 2 2 2 2 2 2 2 2
-8 -8 -8 -8 -8 -8 -8 -8 -8 -8 -8 -7 -7 -6 -6 -6 -6 -5 -5 -4 -3 -3 -2 -2 -1 -1 -0 -0 0 1 1 2 2 2 2 2 2 2 2 2 2 2 2 1
Wind_Speed
18 19 18 19 20 17 16 15 15 17 19 19 18 18 17 15 15 15 15 14 14 14 13 13 11 9 9 8 7 6 9 10 12 14 14 15 16 17 17 16 16 16 17 17
16 16 17 20 21 20 18 17 19 21 21 17 16 15 15 14 14 14 14 15 15 15 14 13 12 11 10 9 8 7 8 10 11 12 13 14 15 16 16 16 16 16 16 16
12 14 14 14 13 12 11 11 12 16 16 14 15 15 15 14 13 13 15 15 15 15 14 13 12 11 10 10 8 7 8 9 10 11 13 14 14 15 16 16 16 16 15 16
8 9 10 7 3 7 11 13 13 14 14 14 14 15 13 11 12 14 15 15 15 15 15 14 12 11 10 9 8 7 7 9 10 11 13 13 14 15 16 14 15 15 15 15
5 8 12 11 7 5 8 11 9 11 12 13 13 13 11 10 11 13 15 15 14 14 14 13 12 11 10 9 7 7 8 9 10 11 13 13 14 14 14 13 13 13 13 14
7 8 9 7 2 1 5 8 4 7 11 12 11 11 11 12 14 15 15 13 13 14 13 12 11 10 9 8 8 7 8 8 10 11 12 14 14 14 12 12 12 11 11 12
12 11 10 8 2 2 5 6 6 8 10 11 11 12 15 16 15 15 15 15 14 13 12 12 11 10 9 9 8 8 7 8 9 10 12 13 13 12 12 12 12 11 11 10
8 9 10 3 3 5 7 8 10 11 12 13 14 15 16 16 16 15 15 15 14 13 12 11 10 9 10 9 9 8 7 7 8 9 10 10 12 12 12 13 13 12 11 10
9 11 8 5 8 10 10 12 12 12 14 14 15 15 16 16 16 15 15 14 13 13 13 12 10 9 10 10 8 7 7 7 7 8 9 11 13 13 12 12 11 11 10 10
11 15 16 15 14 14 13 13 13 13 14 14 15 15 16 15 15 14 14 14 13 13 12 12 11 10 10 9 8 7 7 6 7 8 9 10 10 11 11 12 12 12 11 11
16 17 16 15 14 14 14 13 14 13 14 14 14 15 15 14 14 14 14 13 13 12 12 13 12 11 10 8 7 7 6 6 6 7 8 8 8 8 10 10 12 13 12 12
14 14 12 14 13 13 14 14 14 14 15 14 13 14 15 14 13 13 13 13 13 12 13 12 11 11 9 8 6 6 6 6 6 7 7 7 7 6 6 8 12 13 13 13
18 16 15 16 14 13 13 14 13 13 13 14 13 12 13 13 13 13 13 13 13 12 12 12 11 11 9 8 7 7 7 6 6 7 8 8 9 9 9 8 11 12 15 15
15 14 14 14 13 13 12 13 12 12 12 12 11 11 11 12 13 13 13 13 12 12 11 11 10 10 9 8 7 6 6 6 6 7 8 8 8 8 9 11 10 8 10 16
12 12 13 13 13 12 11 11 11 11 11 11 10 10 11 12 12 13 12 12 11 10 9 8 9 9 8 7 6 5 5 5 5 7 7 8 8 8 9 10 11 10 9 11
9 10 11 11 12 11 10 10 10 11 11 11 11 11 11 12 12 12 12 10 9 9 9 8 8 9 8 6 5 4 4 6 7 7 8 9 9 9 9 10 11 11 11 11
8 8 8 9 10 10 9 9 9 10 10 11 11 12 12 12 12 12 11 10 9 9 9 8 8 8 7 6 4 3 4 5 8 8 8 8 9 9 9 10 11 10 10 12
9 9 8 8 9 9 9 9 9 10 10 11 12 11 11 11 12 12 12 11 10 9 8 7 7 8 7 4 2 3 4 5 6 7 8 8 9 9 9 9 11 12 10 11
6 7 7 7 7 7 8 9 9 10 10 10 11 11 11 12 12 11 11 10 10 10 9 8 10 7 6 3 1 3 4 5 6 6 7 10 10 9 10 10 11 11 11 11
4 5 5 6 6 7 8 8 9 10 10 10 11 11 12 11 11 11 10 9 8 7 8 9 8 6 4 2 2 3 5 6 7 7 8 9 9 10 10 10 11 11 11 11
4 4 5 6 7 8 8 8 9 10 10 10 10 11 12 11 10 9 8 9 9 8 9 9 6 4 3 1 2 4 5 7 7 8 9 9 10 10 10 10 10 11 11 11
4 5 6 6 7 8 8 8 9 10 10 10 10 10 10 11 10 9 8 7 9 10 8 6 5 4 3 1 2 4 6 7 7 7 8 9 10 10 10 10 11 11 11 11
5 5 6 7 8 9 9 9 9 9 10 10 10 10 10 10 8 8 8 7 7 10 8 6 5 3 2 1 3 5 6 7 7 8 8 8 9 10 10 11 10 11 11 11
5 6 7 7 7 8 9 10 9 8 9 10 9 9 9 8 7 7 7 10 11 11 7 6 4 2 0 2 4 5 6 7 7 7 8 8 8 9 10 10 11 11 11 13
6 7 7 7 8 7 9 10 10 9 9 8 9 9 7 6 7 7 7 8 9 9 5 4 2 1 1 3 4 5 5 6 7 8 8 9 9 10 10 10 11 11 11 11
7 7 7 8 8 8 7 7 7 7 7 8 8 7 6 6 7 7 6 7 8 7 4 2 1 0 2 3 4 5 6 7 7 7 8 9 10 10 10 11 13 11 11 11
7 7 6 7 7 6 6 7 7 8 7 7 8 7 6 6 6 6 6 5 5 3 2 1 0 1 3 4 4 5 5 6 7 8 9 9 9 10 11 12 11 11 12 12
Wind_Direction
269 276 278 275 276 273 259 254 261 273 281 292 305 312 315 320 324 328 330 334 335 334 332 332 328 319 311 295 283 258 233 224 217 213 209 204 200 197 193 191 190 188 190 192
279 278 278 276 273 269 263 258 258 268 276 286 297 306 311 316 321 325 326 328 328 328 328 328 326 318 312 302 290 272 243 230 221 214 207 203 199 194 190 189 187 186 189 190
281 294 294 274 265 259 255 253 258 267 279 298 304 308 309 313 315 318 321 321 321 321 320 319 319 315 307 300 290 271 253 236 223 213 206 201 197 193 190 188 185 186 187 189
281 292 264 273 286 268 265 265 263 269 281 292 299 302 300 305 309 313 317 317 316 316 317 316 315 312 307 299 287 269 253 240 225 211 206 199 194 192 189 187 186 187 187 187
262 272 277 282 275 256 260 276 273 274 289 301 308 303 291 305 311 308 309 310 310 310 312 313 312 311 306 297 286 267 251 241 228 212 204 198 195 192 188 185 185 184 184 183
250 263 270 281 303 277 277 276 286 295 302 308 313 302 303 319 314 309 309 310 313 313 312 313 312 310 303 294 285 271 258 246 233 214 202 197 195 191 186 182 178 175 177 179
244 255 267 276 261 206 253 286 324 311 308 308 300 292 301 307 308 307 308 310 313 314 312 310 310 307 299 291 283 279 269 251 236 215 202 195 191 187 180 174 169 169 167 169
232 242 256 220 192 232 268 302 298 299 302 301 296 296 300 303 306 308 309 310 313 312 309 308 305 300 293 288 287 285 269 250 233 214 197 188 183 179 175 168 165 163 160 159
225 243 276 253 254 269 282 287 291 294 297 296 294 294 299 302 305 307 307 308 310 308 306 305 301 295 290 290 289 279 265 247 226 207 191 184 182 175 172 168 167 165 163 161
252 259 267 273 275 275 279 280 285 288 292 293 292 294 297 299 301 305 306 307 308 306 304 302 301 296 290 290 286 268 253 239 213 197 186 182 180 176 174 172 169 167 165 162
255 268 278 271 271 276 280 282 285 289 289 288 290 291 293 295 298 302 303 304 303 301 300 300 300 298 295 290 281 260 242 225 203 188 178 174 172 175 176 176 173 169 169 165
257 267 270 278 282 283 283 286 289 292 292 290 287 287 290 291 293 297 299 301 300 298 297 298 298 295 294 291 275 252 230 208 189 177 171 163 153 140 123 145 146 152 159 163
257 271 273 278 282 283 283 287 290 288 288 290 291 287 287 288 291 295 297 298 297 296 295 297 297 295 295 292 275 247 224 206 184 175 169 163 158 155 145 115 116 132 142 147
256 264 269 272 277 284 286 289 291 290 290 290 291 292 291 290 292 294 296 298 297 294 292 293 293 293 296 294 279 251 220 200 185 176 167 164 160 157 156 152 146 133 132 139
256 256 260 273 281 285 288 291 293 295 298 298 298 298 299 299 298 298 300 302 299 294 292 295 294 295 300 298 283 252 209 187 181 170 162 157 152 150 150 149 146 142 137 137
267 264 263 267 275 284 292 294 293 297 302 302 303 303 302 299 298 299 301 303 300 298 300 301 296 298 303 301 290 255 205 182 175 163 156 152 150 151 149 149 148 150 151 150
259 263 267 273 278 283 285 286 289 295 299 301 302 305 304 303 303 304 306 307 301 295 296 296 296 301 301 296 279 225 180 164 159 157 155 153 152 153 151 151 151 152 153 157
249 257 263 269 274 279 286 290 292 295 297 298 303 304 303 303 302 303 307 308 308 305 302 298 300 305 302 288 247 187 166 162 160 158 154 153 150 149 148 148 150 149 149 150
256 261 269 273 276 280 288 293 296 298 299 301 302 301 300 299 299 301 305 305 305 306 308 310 311 308 300 283 208 165 158 154 150 149 149 148 147 148 148 148 149 149 148 146
271 275 279 283 285 286 290 295 299 299 301 303 302 301 301 301 303 303 303 296 292 294 301 307 309 302 294 263 169 158 156 154 151 149 148 149 148 146 146 145 147 146 145 144
281 285 287 290 293 293 292 296 297 297 300 300 297 297 298 300 302 300 299 298 301 308 306 305 304 297 294 243 155 154 152 151 151 149 147 147 145 144 144 144 144 142 141 139
281 285 289 293 296 297 299 300 296 295 296 295 294 295 297 299 302 299 290 285 296 308 311 303 299 296 296 251 147 140 139 140 142 141 143 144 144 144 145 144 142 140 139 140
283 288 292 295 297 299 301 299 296 295 294 294 294 295 294 294 295 294 296 296 301 307 308 297 292 295 291 173 136 134 136 138 140 141 141 142 144 146 145 143 141 141 142 142
286 291 294 297 298 297 296 298 298 296 293 292 290 290 291 292 292 287 285 294 303 305 301 293 286 279 249 142 136 134 137 139 139 138 136 137 140 140 140 140 140 140 140 140
286 289 290 292 291 290 292 298 299 297 296 295 293 292 289 283 283 292 295 296 301 302 295 287 282 269 141 134 135 136 137 140 140 139 139 139 139 139 138 139 141 141 141 142
285 285 284 281 280 282 287 290 291 294 297 297 298 299 299 295 289 288 291 295 295 295 292 286 284 125 125 131 135 137 138 139 137 139 140 139 139 139 139 139 138 140 139 139
285 285 285 287 285 282 283 284 285 289 291 292 295 300 303 302 298 297 298 299 301 301 308 327 53 116 126 132 133 132 133 134 135 136 136 135 135 136 137 137 137 136 136 137
Height
1449 1444 1442 1440 1435 1433 1433 1428 1423 1409 1404 1399 1398 1397 1394 1391 1387 1384 1380 1376 1373 1369 1366 1362 1360 1358 1357 1357 1358 1359 1362 1365 1368 1373 1378 1383 1388 1394 1399 1405 1410 1416 1422 1427
1444 1438 1436 1432 1425 1422 1420 1418 1414 1409 1403 1399 1398 1395 1392 1389 1386 1382 1379 1375 1372 1368 1364 1361 1358 1356 1354 1354 1354 1355 1358 1360 1364 1368 1373 1378 1383 1389 1394 1399 1405 1411 1416 1422
1438 1433 1433 1421 1412 1412 1410 1408 1408 1403 1398 1396 1395 1392 1390 1387 1384 1381 1377 1374 1370 1367 1363 1359 1356 1354 1352 1351 1351 1352 1353 1356 1360 1363 1368 1373 1378 1384 1389 1394 1399 1405 1410 1416
1440 1436 1431 1409 1409 1410 1408 1403 1402 1400 1397 1395 1393 1390 1387 1385 1382 1378 1375 1371 1367 1364 1360 1356 1353 1351 1349 1349 1349 1349 1350 1352 1355 1359 1363 1368 1373 1378 1383 1389 1394 1399 1405 1411
1438 1430 1415 1407 1406 1407 1406 1399 1397 1396 1394 1392 1390 1386 1382 1381 1379 1376 1373 1369 1365 1361 1357 1353 1350 1348 1347 1345 1345 1345 1346 1348 1350 1354 1358 1363 1367 1372 1378 1384 1389 1394 1400 1405
1435 1430 1416 1401 1404 1405 1406 1397 1394 1393 1392 1390 1388 1383 1377 1377 1375 1372 1368 1365 1361 1356 1353 1350 1347 1345 1343 1342 1341 1341 1341 1343 1347 1350 1354 1358 1362 1368 1374 1380 1385 1390 1395 1401
1430 1423 1407 1401 1403 1405 1404 1395 1394 1392 1391 1389 1386 1384 1379 1375 1371 1368 1364 1360 1356 1352 1349 1346 1343 1341 1340 1338 1337 1337 1338 1340 1342 1346 1350 1354 1359 1364 1370 1375 1381 1386 1391 1396
1423 1419 1406 1398 1401 1400 1395 1393 1392 1390 1388 1386 1382 1379 1375 1371 1367 1363 1359 1356 1352 1348 1345 1342 1340 1338 1335 1334 1334 1334 1334 1335 1338 1341 1345 1350 1355 1360 1365 1371 1376 1381 1387 1392
1411 1402 1395 1396 1395 1394 1393 1391 1388 1387 1384 1382 1377 1374 1370 1366 1363 1359 1356 1352 1349 1345 1341 1338 1337 1334 1332 1330 1330 1330 1330 1331 1334 1337 1341 1345 1350 1355 1361 1366 1372 1377 1382 1387
1404 1395 1393 1392 1391 1390 1389 1386 1384 1383 1380 1377 1373 1369 1366 1362 1358 1355 1352 1348 1345 1341 1337 1334 1332 1330 1328 1326 1326 1325 1326 1327 1330 1333 1337 1342 1347 1351 1356 1361 1366 1372 1377 1382
1395 1390 1389 1387 1386 1385 1383 1381 1379 1377 1374 1372 1368 1365 1361 1357 1354 1350 1347 1343 1340 1337 1333 1329 1327 1325 1323 1322 1322 1322 1322 1324 1327 1330 1334 1338 1343 1348 1352 1357 1362 1367 1373 1378
1385 1383 1383 1381 1380 1379 1377 1375 1373 1371 1368 1365 1363 1359 1356 1353 1349 1346 1342 1338 1335 1332 1329 1325 1323 1320 1319 1318 1318 1318 1318 1320 1323 1327 1330 1334 1339 1345 1351 1356 1361 1367 1372 1377
1379 1378 1378 1376 1375 1374 1372 1370 1367 1365 1362 1359 1356 1354 1351 1347 1344 1341 1337 1334 1331 1327 1324 1321 1319 1316 1315 1314 1314 1314 1315 1317 1320 1324 1327 1331 1336 1341 1346 1353 1359 1365 1370 1375
1375 1375 1373 1371 1370 1369 1367 1364 1362 1359 1356 1354 1351 1348 1345 1342 1339 1336 1332 1329 1326 1323 1320 1317 1315 1312 1311 1310 1310 1310 1312 1314 1317 1321 1325 1329 1334 1339 1344 1349 1355 1361 1368 1373
1369 1369 1368 1366 1365 1363 1362 1359 1357 1354 1351 1349 1346 1344 1341 1337 1334 1330 1327 1324 1321 1318 1315 1313 1311 1309 1307 1307 1306 1307 1309 1311 1315 1318 1322 1327 1331 1337 1342 1347 1352 1358 1364 1371
1363 1363 1362 1361 1360 1359 1357 1355 1352 1350 1347 1345 1342 1339 1336 1333 1329 1326 1322 1319 1316 1313 1311 1309 1307 1305 1304 1303 1303 1304 1306 1309 1312 1316 1320 1324 1329 1334 1339 1344 1350 1356 1361 1367
1359 1358 1357 1356 1355 1354 1352 1351 1349 1346 1344 1341 1338 1335 1332 1329 1325 1321 1318 1315 1313 1310 1308 1306 1304 1302 1301 1300 1300 1302 1304 1307 1311 1314 1317 1322 1327 1332 1337 1342 1348 1354 1359 1365
1354 1354 1353 1352 1351 1350 1348 1346 1344 1342 1340 1337 1334 1331 1328 1325 1321 1318 1315 1312 1309 1306 1304 1303 1301 1299 1298 1298 1298 1300 1302 1305 1308 1311 1316 1320 1325 1330 1335 1340 1346 1352 1358 1364
1349 1349 1349 1348 1347 1346 1344 1342 1340 1338 1335 1333 1330 1327 1324 1321 1318 1314 1312 1309 1306 1303 1301 1300 1298 1296 1296 1295 1296 1298 1300 1303 1306 1310 1315 1319 1324 1329 1334 1339 1345 1350 1355 1361
1346 1345 1345 1344 1343 1342 1340 1338 1336 1333 1331 1328 1325 1322 1319 1317 1314 1311 1308 1305 1303 1301 1299 1297 1295 1294 1293 1294 1295 1296 1298 1301 1305 1309 1313 1318 1323 1328 1332 1338 1343 1349 1355 1361
1343 1342 1341 1340 1339 1337 1336 1334 1331 1329 1326 1324 1321 1318 1315 1312 1310 1308 1305 1301 1300 1299 1297 1295 1293 1292 1292 1292 1294 1295 1297 1300 1304 1308 1312 1317 1321 1326 1331 1337 1342 1348 1354 1360
1340 1339 1338 1336 1334 1333 1331 1329 1327 1324 1322 1319 1317 1314 1311 1308 1306 1304 1302 1300 1297 1296 1294 1292 1291 1291 1291 1292 1293 1295 1297 1300 1304 1308 1312 1316 1320 1325 1331 1336 1342 1348 1354 1359
1337 1336 1334 1332 1330 1328 1326 1324 1322 1320 1317 1315 1312 1310 1307 1305 1303 1301 1298 1297 1295 1293 1292 1291 1290 1290 1290 1291 1293 1295 1297 1301 1304 1308 1312 1316 1321 1326 1331 1336 1342 1347 1353 1359
1333 1332 1330 1328 1326 1324 1321 1319 1318 1315 1313 1310 1308 1306 1304 1301 1299 1298 1296 1294 1292 1291 1290 1289 1289 1289 1290 1291 1293 1295 1298 1301 1304 1308 1312 1317 1321 1326 1331 1337 1342 1347 1353 1358
1329 1327 1325 1323 1321 1319 1317 1315 1312 1310 1308 1306 1303 1301 1300 1298 1296 1294 1293 1291 1290 1289 1288 1288 1288 1289 1290 1291 1293 1295 1298 1302 1305 1309 1313 1317 1322 1327 1332 1337 1342 1348 1353 1358
1324 1322 1320 1319 1317 1315 1312 1310 1308 1305 1303 1301 1299 1297 1295 1294 1292 1291 1290 1289 1288 1287 1287 1287 1288 1289 1290 1292 1294 1296 1299 1303 1306 1310 1314 1319 1323 1328 1333 1338 1343 1348 1353 1359
1319 1317 1315 1313 1311 1310 1308 1306 1303 1301 1299 1297 1295 1293 1292 1290 1289 1288 1287 1286 1286 1286 1286 1286 1287 1289 1290 1292 1294 1297 1300 1304 1308 1311 1315 1320 1324 1329 1334 1339 1344 1349 1354 1359